Lexington Weather

Lexington, Massachusetts, USA

34°F
4/16/2021 10:59am 
  • Lexington Conditions: Light snow, Mist, Overcast
  • Temperature: 34.0°F / 1.1°CWarmer 0.2°F than last hour.
  • Dew Point: 32.7°FIncreased 0.2°Fsince last hour.
  • Relative Humidity: 95
  • Wind: Wind from N N 4 mph, 10-min avg: 2 mph, gust: 4 mph
  • Barometer: 29.47 inFalling 0.03  inHg/hr Falling Slowly
  • Visibility: 1 mile
  • Snow Today: 1.3 in
  •   

Regional Weather Roundup
for Boston / Norton, MA

        
000
ASUS41 KBOX 100404
RWRBOX

REGIONAL WEATHER ROUNDUP
NATIONAL WEATHER SERVICE BOSTON/NORTON MA
1200 AM EDT SAT APR 10 2021

NOTE:  "FAIR" INDICATES FEW OR NO CLOUDS BELOW 12,000 FEET WITH NO 
SIGNIFICANT WEATHER AND/OR OBSTRUCTIONS TO VISIBILITY.

MAZALL-100500-
EASTERN MASSACHUSETTS
  
CITY           SKY/WX    TMP DP  RH WIND       PRES   REMARKS
BOSTON         PTCLDY    51  42  71 SW7       30.09F                  
BEVERLY        NOT AVBL                                               
LAWRENCE       PTCLDY    51  42  71 S5        30.08F                  
BEDFORD        PTCLDY    50  42  74 S5        30.07F                  
BLUE HILL        N/A     44  42  93 S10       30.08F                  
NORWOOD        PTCLDY    47  41  80 S6        30.10F                  
MARSHFIELD     CLEAR     46  45  93 VRB6      30.10F                  
PLYMOUTH       CLOUDY    43  41  93 SW6       30.11F                  
TAUNTON        CLOUDY    43  42  97 S3        30.12S                  
NEW BEDFORD    CLOUDY    43  42  97 S7        30.12F FOG              
$$

MAZALL-100500-
CAPE COD AND THE ISLANDS
  
CITY           SKY/WX    TMP DP  RH WIND       PRES   REMARKS
FALMOUTH       FOG       41  41 100 W9        30.13F VSB 1/2          
HYANNIS        CLOUDY    44  42  93 SW8       30.10F                  
CHATHAM        FOG       43  41  93 SW7       30.13F VSB 1            
PROVINCETOWN   MOCLDY    43  42  97 SW9       30.11                   
NANTUCKET      FOG       40  40 100 W10       30.13F VSB 1/2          
MARTHAS VNYRD  FOG       41  41 100 SW5       30.13F VSB 1/2          
$$
 
MAZALL-100500-
CENTRAL AND WESTERN MASSACHUSETTS
  
CITY           SKY/WX    TMP DP  RH WIND       PRES   REMARKS
WORCESTER      MOCLDY    52  42  69 SW12      30.08F                  
FITCHBURG      PTCLDY    50  43  77 CALM      30.07F                  
ORANGE         CLOUDY    55  44  66 S8        30.08F                  
SPRINGFIELD    CLOUDY    54  44  69 S7        30.07F                  
WESTFIELD      CLOUDY    54  45  71 S6        30.07F                  
NORTH ADAMS    CLOUDY    59  41  51 W5        30.06S                  
PITTSFIELD     CLOUDY    56  42  59 S7        30.06F                  
$$
 
RIZALL-100500-
RHODE ISLAND
  
CITY           SKY/WX    TMP DP  RH WIND       PRES   REMARKS
PROVIDENCE     PTCLDY    44  42  93 S6        30.12F                  
NEWPORT        FOG       42  42 100 SW5       30.12F VSB 1/4          
BLOCK ISLAND   LGT RAIN  42  42 100 SW10      30.14S FOG              
SMITHFIELD     PTCLDY    45  44  97 CALM      30.10F                  
WESTERLY       CLOUDY    42  42 100 SW5       30.13F FOG              
$$
 
CTZALL-100500-
CONNECTICUT
  
CITY           SKY/WX    TMP DP  RH WIND       PRES   REMARKS
BRADLEY INTL   CLOUDY    54  44  69 S9        30.08F                  
HARTFORD       CLOUDY    52  44  74 S6        30.10F                  
BRIDGEPORT     CLOUDY    48  44  86 S7        30.12F                  
DANBURY        MOCLDY    52  43  71 CALM      30.11F                  
GROTON         CLOUDY    45  44  97 SW5       30.12F                  
NEW HAVEN      CLOUDY    49  46  90 S5        30.12F                  
CHESTER        MOCLDY    46  45  93 CALM      30.11F                  
MERIDEN        CLOUDY    50  43  77 S6        30.11F                  
WILLIMANTIC    CLOUDY    50  43  77 SE3       30.11F                  
OXFORD         CLOUDY    49  46  90 S3        30.10F                  
$$

MEZ002-015-021-024-NHZ003-005-008-011-012-014-VTZ005-008-100500-
NORTHERN NEW ENGLAND
  
CITY           SKY/WX    TMP DP  RH WIND       PRES   REMARKS
PORTLAND ME    CLEAR     45  42  89 CALM      30.07F                  
BANGOR ME      MOCLDY    46  41  82 SE3       30.07F                  
CONCORD NH     CLEAR     50  42  74 CALM      30.06F                  
MANCHESTER NH  MOCLDY    54  42  64 S3        30.05F                  
NASHUA NH      PTCLDY    49  46  90 CALM      30.07F                  
PORTSMOUTH NH  MOCLDY    46  43  87 CALM      30.07F                  
JAFFREY NH     MOCLDY    50  43  77 S3        30.07F                  
KEENE NH       MOCLDY    51  42  71 S3        30.07F                  
BURLINGTON VT  CLOUDY    64  39  39 S6        29.99S                  
MT. WASHINGTON PTCLDY    41  34  75 W7          N/A                   
$$

NYZ052-076-100500-
EASTERN NEW YORK
  
CITY           SKY/WX    TMP DP  RH WIND       PRES   REMARKS
ALBANY         CLOUDY    55  44  66 S14G21    30.05F                  
NEW YORK CITY  CLOUDY    50  44  80 S7        30.12R                  
$$
 
ANZALL-100500-
MARINE OBSERVATIONS
  
STATION/POSITION TIME  TEMP    WIND        PRES    VSBY  WAVE
                       AIR SEA DIR/SP/G                  HT/PER
                 (UTC) (F)     (DEG/KT/KT) (MB)    (MI)  (FT/S)
BOSTON BUOY      0340   46 44  180/  8/ 10 1019.2F
BUZZARDS BAY     0300          230/ 11/ 12 1021.7F
NANTUCKET SOUND  0340      47                N/A
MASS BAY-STELLWA 0304   47     190/ 12/ 14 1018.1F  1 7/8  4/11
ISLE OF SHOALS   0300   49     190/ 16/ 16 1018.2F
S OF BLOCK IS    0326      46                N/A           3/11
$$

......................KEY.........................
  SKY/WX - SKY CONDITION/PRESENT WEATHER
  TMP    - TEMPERATURE IN FAHRENHEIT
  DWPT   - DEWPOINT IN FAHRENHEIT
  RH     - RELATIVE HUMIDITY IN PERCENT
  WIND   - DIRECTION AND SPEED IN MPH
  PRES   - MEAN SEA LEVEL PRESSURE IN INCHES OF HG
  WCI    - WIND CHILL INDEX
  VSB    - VISIBILITY IN MILES
  HX     - HEAT INDEX
  TC     - TEMPERATURE IN CELSIUS
  VRB    - VARIABLE WIND DIRECTION
  N/A    - NOT AVAILABLE
  
      

Other recent Regional Weather Roundups

Fri Apr 16, 10:05am

Fri Apr 16, 9:04am

Fri Apr 16, 8:04am

Fri Apr 16, 7:04am

Fri Apr 16, 6:04am

Fri Apr 16, 5:04am

Fri Apr 16, 4:04am

Fri Apr 16, 3:04am

Fri Apr 16, 2:04am

Fri Apr 16, 1:04am

Fri Apr 16, 12:04am

Thu Apr 15, 11:05pm

Thu Apr 15, 10:04pm

Thu Apr 15, 9:04pm

Thu Apr 15, 8:04pm

Thu Apr 15, 7:05pm

Thu Apr 15, 6:04pm

Thu Apr 15, 5:05pm

Thu Apr 15, 4:04pm

Thu Apr 15, 3:05pm

Thu Apr 15, 2:04pm

Thu Apr 15, 1:05pm

Thu Apr 15, 12:04pm

Thu Apr 15, 11:04am

Thu Apr 15, 10:05am

Thu Apr 15, 9:04am

Thu Apr 15, 8:04am

Thu Apr 15, 7:04am

Thu Apr 15, 6:04am

Thu Apr 15, 5:04am

Thu Apr 15, 4:04am

Thu Apr 15, 3:04am

Thu Apr 15, 2:04am

Thu Apr 15, 1:04am

Thu Apr 15, 12:04am

Wed Apr 14, 11:04pm

Wed Apr 14, 10:04pm

Wed Apr 14, 9:04pm

Wed Apr 14, 8:04pm

Wed Apr 14, 7:04pm

Wed Apr 14, 6:04pm

Wed Apr 14, 5:05pm

Wed Apr 14, 4:04pm

Wed Apr 14, 3:05pm

Wed Apr 14, 2:04pm

Wed Apr 14, 1:05pm

Wed Apr 14, 12:04pm

Wed Apr 14, 11:04am

Wed Apr 14, 10:04am

Wed Apr 14, 9:04am

Wed Apr 14, 8:04am

Wed Apr 14, 7:04am

Wed Apr 14, 6:04am

Wed Apr 14, 5:04am

Wed Apr 14, 4:04am

Wed Apr 14, 3:04am

Wed Apr 14, 2:04am

Wed Apr 14, 1:04am

Wed Apr 14, 12:04am

Tue Apr 13, 11:04pm

Tue Apr 13, 10:05pm

Tue Apr 13, 9:05pm

Tue Apr 13, 8:05pm

Tue Apr 13, 7:04pm

Tue Apr 13, 6:04pm

Tue Apr 13, 5:05pm

Tue Apr 13, 4:04pm

Tue Apr 13, 3:04pm

Tue Apr 13, 2:05pm

Tue Apr 13, 1:04pm

Tue Apr 13, 12:05pm

Tue Apr 13, 11:05am

Tue Apr 13, 10:04am

Tue Apr 13, 9:04am

Tue Apr 13, 8:04am

Tue Apr 13, 7:04am

Tue Apr 13, 6:04am

Tue Apr 13, 5:04am

Tue Apr 13, 4:04am

Tue Apr 13, 3:04am

Tue Apr 13, 2:04am

Tue Apr 13, 1:04am

Tue Apr 13, 12:05am

Mon Apr 12, 11:04pm

Mon Apr 12, 10:04pm

Mon Apr 12, 9:04pm

Mon Apr 12, 8:04pm

Mon Apr 12, 7:05pm

Mon Apr 12, 6:04pm

Mon Apr 12, 5:04pm

Mon Apr 12, 4:04pm

Mon Apr 12, 3:05pm

Mon Apr 12, 2:04pm

Mon Apr 12, 1:05pm

Mon Apr 12, 12:04pm

Mon Apr 12, 11:04am

Mon Apr 12, 10:04am

Mon Apr 12, 9:04am

Mon Apr 12, 8:04am

Mon Apr 12, 7:04am

Mon Apr 12, 6:04am

Mon Apr 12, 5:04am

Mon Apr 12, 4:04am

Mon Apr 12, 3:04am

Mon Apr 12, 2:04am

Mon Apr 12, 1:05am

Mon Apr 12, 12:04am

Sun Apr 11, 11:04pm

Sun Apr 11, 10:04pm

Sun Apr 11, 9:04pm

Sun Apr 11, 8:04pm

Sun Apr 11, 7:04pm

Sun Apr 11, 6:05pm

Sun Apr 11, 5:05pm

Sun Apr 11, 4:04pm

Sun Apr 11, 3:05pm

Sun Apr 11, 2:05pm

Sun Apr 11, 1:05pm

Sun Apr 11, 12:04pm

Sun Apr 11, 11:05am

Sun Apr 11, 10:05am

Sun Apr 11, 9:04am

Sun Apr 11, 8:04am

Sun Apr 11, 7:04am

Sun Apr 11, 6:04am

Sun Apr 11, 5:04am

Sun Apr 11, 4:04am

Sun Apr 11, 3:04am

Sun Apr 11, 2:04am

Sun Apr 11, 1:05am

Sun Apr 11, 12:04am

Sat Apr 10, 11:05pm

Sat Apr 10, 10:04pm

Sat Apr 10, 9:04pm

Sat Apr 10, 8:04pm

Sat Apr 10, 7:05pm

Sat Apr 10, 6:04pm

Sat Apr 10, 5:04pm

Sat Apr 10, 4:04pm

Sat Apr 10, 3:04pm

Sat Apr 10, 2:05pm

Sat Apr 10, 1:04pm

Sat Apr 10, 12:04pm

Sat Apr 10, 11:04am

Sat Apr 10, 10:04am

Sat Apr 10, 9:04am

Sat Apr 10, 8:04am

Sat Apr 10, 7:04am

Sat Apr 10, 6:04am

Sat Apr 10, 5:04am

Sat Apr 10, 4:04am

Sat Apr 10, 3:04am

Sat Apr 10, 2:04am

Sat Apr 10, 1:05am

Fri Apr 9, 11:04pm

Fri Apr 9, 10:05pm

Fri Apr 9, 9:04pm

Fri Apr 9, 8:05pm

Fri Apr 9, 7:05pm

Fri Apr 9, 6:04pm

Fri Apr 9, 5:04pm

Fri Apr 9, 4:05pm

Fri Apr 9, 3:05pm

Fri Apr 9, 2:04pm

Fri Apr 9, 1:04pm

Fri Apr 9, 12:04pm

Fri Apr 9, 11:05am

Meta data:

ID: 66c9678c-6acf-4c3f-8e02-7620a518b6dd
Link: https://api.weather.gov/products/66c9678c-6acf-4c3f-8e02-7620a518b6dd